Weather in Shaturtorph

Russia / Moscow Oblast     55°33′46″N   39°25′32″E
temp.,
°C
wind,
m/s
gust,
m/s
humid.,
%
clouds,
%
prec.,
mm/h
press.,
hPa
HPBL,
m
29 june, wed
wed2900:00+11ne27740 0.0 1023120
03:00+9nne22750 0.0 102329
06:00+12ne22670 0.0 1023134
09:00+18ne23450 0.0 1023996
12:00+21ne33320 0.0 10221875
15:00+23nne33290 0.0 10212116
18:00+21nne33360 0.0 10201672
21:00+14ne23620 0.0 102054
30 june, thu
thu3000:00+12nne22730 0.0 102030
03:00+10n228634 0.0 102013
06:00+13n23707 0.0 1020123
09:00+20nnw35450 0.0 10191015
12:00+23n45295 0.0 10182119
15:00+24n572828 0.0 10172439
18:00+22nne47391 0.0 10162173
21:00+16nnw38643 0.0 1017146
1 july, fri
fri100:00+14nnw267933 0.0 101792
03:00+12n37880 0.0 1018142
06:00+13ne38725 0.0 1019254
09:00+18ne36435 0.0 10201296
12:00+21nne57325 0.0 10201978
15:00+22nne47315 0.0 10202176
18:00+21nne46392 0.0 10191948
21:00+14nne22655 0.0 102011
2 july, sat
sat200:00+12nnw11695 0.0 102110
03:00+11nw227750 0.0 102130
06:00+14wnw2668100 0.0 1020157
09:00+21nw354472 0.0 1018672
12:00+26nw363276 0.0 10161492
15:00+28nnw373848 0.0 10142889
18:00+27n584235 0.0 10132148
21:00+21nnw247098 0.0 101462
3 july, sun
sun300:00+17n22890 0.0 101441
03:00+14nne25960 0.0 1015110
06:00+16nne36800 0.0 1016238
09:00+21nne36541 0.0 1016880
12:00+25nne354035 0.0 10151588
15:00+27n35350 0.0 10141918
18:00+26nne35410 0.0 10141737
21:00+18ene11710 0.0 101411